Regional Weather Roundup
Issued by NWS Upton, NY

Current Version | Previous Version | Graphics & Text | Print | Product List | Glossary Off
Versions: 1 2 3 4 5 6 7 8 9 10 11 12 13 14 15 16 17 18 19 20 21 22 23 24 25 26 27 28 29 30 31 32 33 34 35 36 37 38 39 40 41 42 43 44 45 46 47 48 49 50

000
ASUS41 KOKX 271705
RWROKX

REGIONAL WEATHER ROUNDUP
NATIONAL WEATHER SERVICE NEW YORK NY
100 PM EDT SUN JUL 27 2014

NOTE: "FAIR" INDICATES FEW OR NO CLOUDS BELOW 12,000 FEET WITH NO
SIGNIFICANT WEATHER AND/OR OBSTRUCTIONS TO VISIBILITY.

NYZ071-072-176-178-NJZ106-104-271800-
NEW YORK CITY METRO AREA


CITY           SKY/WX    TMP DP  RH WIND       PRES   REMARKS
CENTRAL PARK   CLOUDY    79  68  69 VRB6      29.77F
LAGUARDIA APRT PTSUNNY   81  66  60 SW10      29.73F
KENNEDY INTL   PTSUNNY   80  71  74 S15       29.75F
NEWARK/LIBERTY CLOUDY    83  69  62 SW10      29.73F
BRNX BOT. GARD   N/A     79  66  65 SW10      29.75S
TETERBORO      CLOUDY    83  68  60 SW7       29.72F
$$

NYZ177-179-078>081-271800-
LONG ISLAND NEW YORK

CITY           SKY/WX    TMP DP  RH WIND       PRES   REMARKS
FARMINGDALE    PTSUNNY   79  71  76 S14G22    29.75F
ISLIP          CLOUDY    78  69  73 S15G21    29.75S
SHIRLEY        CLOUDY    75  68  78 S13G23    29.77F
WESTHAMPTON    CLOUDY    77  69  76 S15G22    29.78F
MONTAUK POINT    N/A     76  69  79 S7        29.79F
$$

NYZ052-065-067-271800-
HUDSON VALLEY

CITY           SKY/WX    TMP DP  RH WIND       PRES   REMARKS
WHITE PLAINS   MOSUNNY   79  69  71 VRB3      29.74F
NEWBURGH       NOT AVBL
MONTGOMERY     MOSUNNY   83  68  60 W9        29.71F
POUGHKEEPSIE   MOSUNNY   80  69  69 SW9       29.71F
ALBANY         PTSUNNY   77  67  71 VRB6      29.70F
$$

NJZ001-105-106-008-010-013-015-019>022-104-271800-
NEW JERSEY

CITY           SKY/WX    TMP DP  RH WIND       PRES   REMARKS
NEWARK/LIBERTY CLOUDY    83  69  62 SW10      29.73F
TETERBORO      CLOUDY    83  68  60 SW7       29.72F
CALDWELL       PTSUNNY   80  68  66 VRB6      29.74F
MORRISTOWN     PTSUNNY   82  70  65 W12       29.74F
SOMERVILLE     PTSUNNY   82  68  62 MISG      29.72F
LINDEN         PTSUNNY   83  69  61 W7        29.76F
SUSSEX         PTSUNNY   85  69  58 SW8       29.72F
ANDOVER          N/A     81  66  60 W8        29.75F
TRENTON        CLOUDY    84  67  56 W6        29.74F
MILLVILLE      CLOUDY    81  69  67 VRB5      29.77F
ATLANTIC CITY  CLOUDY    82  68  62 VRB6      29.77F
WRIGHTSTOWN    PTSUNNY   86  69  57 W12       29.73F HX  90
TOMS RIVER     PTSUNNY   88  70  55 W7        29.75F HX  92
BELMAR         CLOUDY    82  70  65 SW7       29.75F
$$

PAZ047>061-062-071-271800-
EASTERN PENNSYLVANIA

CITY           SKY/WX    TMP DP  RH WIND       PRES   REMARKS
PHILADELPHIA   MOSUNNY   85  66  53 SW10      29.75F
ALLENTOWN      SUNNY     84  67  56 W13       29.75F
SCRANTON       MOSUNNY   82  63  52 SW12G18   29.76F
$$

CTZ002-004>006-009-010-012-RIZ004-006-007-MAZ004-011-015-271800-
SOUTHERN NEW ENGLAND
 IN CT

CITY           SKY/WX    TMP DP  RH WIND       PRES   REMARKS
BRADLEY INTL   CLOUDY    76  71  85 S8        29.72F
HARTFORD       RAIN      73  69  87 S15G24    29.71F FOG
DANBURY        MOSUNNY   76  69  79 SW8       29.76F
WTRBRY/OXFORD  NOT AVBL
BRIDGEPORT     CLOUDY    79  71  76 SW12      29.73F
MERIDEN        PTSUNNY   80  68  66 S12G18    29.74F
NEW HAVEN      LGT RAIN  77  70  79 S3        29.75F
CHESTER        PTSUNNY   73  68  83 S8        29.79S
GROTON         CLOUDY    71  70  96 S10       29.77S
WILLIMANTIC    CLOUDY    74  69  85 SW7       29.77S

 IN RI

CITY           SKY/WX    TMP DP  RH WIND       PRES   REMARKS
PROVIDENCE     LGT RAIN  72  69  90 S10       29.79F
BLOCK ISLAND   CLOUDY    73  66  78 S14       29.79F
WESTERLY       CLOUDY    72  69  90 S9        29.79F

 IN MA

CITY           SKY/WX    TMP DP  RH WIND       PRES   REMARKS
BOSTON         LGT RAIN  71  69  93 S9        29.77F FOG
WORCESTER      TSTM      67  67 100 SW8       29.80S VSB 1/4
WESTFIELD      RAIN      74  71  91 S6        29.73F
PROVINCETOWN   PTSUNNY   75  66  73 CALM      29.80F
NANTUCKET      PTSUNNY   70  65  84 S10       29.83F
$$

ANZ330-335-338-340-345-350-353-355-271800-
COASTAL MARINE OBSERVATIONS


STATION/POSITION TIME  SKY/WX   TEMP    WIND        PRES    VSBY  WAVE
                                AIR SEA DIR/SP/G                  HT/PER
                 (UTC)          (F)     (DEG/KT/KT) (MB)    (MI)  (FT/S)
NY HARB ENTRANCE NOT AVBL
4S FIRE IS       NOT AVBL
23SW MTP         1700            73 71              1007.5          4/ 5
HUDSON CANYON    1700            72 74  160/ 16/ 23 1008.5          4/ 5
EXECUTION ROCKS  1700            77 72  220/  6/ 10   N/A
WESTERN LI SOUND 1700            76     210/ 10/ 12   N/A           1/ 3
CENTRAL LI SOUND 1600            74 71  210/ 10/ 12   N/A           2/ 3
EASTERN LI SOUND 1600            70 67  180/ 12/ 14   N/A
ROBBINS REEF     1600            79     240/  8/ 10   N/A
$$


>>>>>>>>>>>>>>>>>>>>>>>>>>>> KEY <<<<<<<<<<<<<<<<<<<<<<<<<<<
>                                                          <
>     SKY/WX - SKY CONDITION/PRESENT WEATHER               <
>     TMP    - TEMPERATURE IN FAHRENHEIT                   <
>     DP     - DEWPOINT IN FAHRENHEIT                      <
>     RH     - RELATIVE HUMIDITY IN PERCENT                <
>     WIND   - DIRECTION AND SPEED IN MPH                  <
>     PRES   - MEAN SEA LEVEL PRESSURE IN INCHES OF HG     <
>     WCI    - WIND CHILL INDEX                            <
>     VSB    - VISIBILITY IN MILES                         <
>     HX     - HEAT INDEX                                  <
>     TC     - TEMPERATURE IN CELSIUS                      <
>     VRB    - VARIABLE WIND DIRECTION                     <
>                                                          <
>>>>>>>>>>>>>>>>>>>>>>>>>>>> KEY <<<<<<<<<<<<<<<<<<<<<<<<<<<




USA.gov is the U.S. government's official web portal to all federal, state and local government web resources and services.